Theta_e
321 319 318 316 318 318 315 314 310 305 306 309 308 310 311 313 316 316 313 321 331 331 330 330 331 331 331 330 330 330 328 326 327 327 327 326 327 328
322 319 317 316 317 317 317 313 312 309 304 307 308 308 311 313 320 312 315 323 323 327 328 327 330 330 329 329 329 329 329 328 327 327 326 325 325 326
320 319 316 317 317 316 315 313 311 308 303 305 306 308 308 308 309 311 314 311 311 321 327 326 327 328 328 328 329 329 329 329 328 327 326 325 325 325
321 317 315 320 315 313 311 309 304 304 302 299 303 303 306 309 306 308 311 312 308 318 325 325 325 325 325 325 325 324 325 326 326 326 326 325 324 324
320 317 315 315 311 308 306 303 302 303 302 302 300 302 303 305 302 307 307 305 311 319 322 322 323 324 323 321 321 320 318 319 320 321 322 322 322 323
319 317 316 314 310 305 306 302 301 301 302 301 300 301 301 302 300 303 303 304 307 312 316 319 321 323 321 321 320 323 318 315 314 315 316 316 317 319
318 316 314 315 317 311 305 301 300 300 300 301 301 300 300 300 298 302 301 303 306 306 307 309 310 309 308 313 315 321 319 319 315 314 313 313 312 314
317 315 313 323 319 320 319 317 307 302 301 300 300 299 300 300 299 299 301 301 300 306 305 306 308 306 306 307 317 320 317 316 317 316 314 313 313 313
318 315 313 316 315 312 317 311 311 316 318 305 302 301 301 301 299 299 301 301 301 306 306 303 305 305 306 309 315 317 316 315 315 316 314 314 313 311
320 317 314 311 307 304 298 299 303 305 306 308 307 305 305 306 302 302 303 302 304 306 306 301 304 303 305 307 315 316 314 314 315 314 313 311 309 307
321 318 312 307 309 308 298 298 299 303 309 310 310 311 313 314 314 304 300 299 299 301 303 302 302 302 303 305 307 312 312 314 314 313 312 311 308 306
316 315 319 307 309 307 296 297 297 297 297 298 300 304 307 306 317 306 301 300 299 300 303 301 301 301 301 304 304 303 303 310 311 310 310 309 306 303
317 311 313 310 306 304 301 297 298 300 300 297 300 302 301 301 303 302 304 304 301 300 305 305 302 301 300 299 299 301 305 303 306 308 306 304 304 304
319 316 311 307 302 302 302 301 303 305 298 298 299 299 300 301 303 303 303 301 305 304 305 302 300 300 298 295 295 300 303 304 303 303 303 304 303 304
318 317 311 304 301 301 304 304 305 299 297 298 298 298 300 302 302 302 302 302 303 302 304 301 299 298 296 295 296 298 298 299 299 297 298 297 297 298
314 314 315 307 303 300 300 302 301 299 298 299 299 299 301 300 300 299 298 300 298 298 301 302 299 297 295 296 296 294 295 295 299 295 295 295 296 296
305 304 304 299 296 295 298 300 301 301 301 300 298 299 299 299 298 299 298 298 295 295 295 297 298 297 297 296 295 295 297 296 296 295 292 293 293 293
304 304 303 297 297 296 298 300 302 305 301 299 300 299 299 298 297 298 297 296 294 294 294 294 294 294 294 294 299 294 294 294 296 296 294 293 292 292
309 305 302 299 300 300 302 303 301 301 299 300 298 299 299 298 298 297 296 295 293 293 293 294 292 291 289 288 291 301 292 294 293 294 294 292 289 290
309 308 305 302 304 304 303 300 300 300 299 298 298 300 298 297 297 295 295 294 293 292 293 292 291 291 290 289 289 293 299 291 291 292 288 288 291 296
305 306 306 304 305 304 301 301 301 300 298 297 298 298 297 298 294 295 296 297 295 292 291 290 292 300 294 291 289 289 290 296 294 291 289 288 288 290
305 305 306 306 306 303 302 301 300 300 299 297 299 297 297 296 294 294 295 294 294 292 291 292 293 292 291 289 288 287 287 289 292 294 294 293 289 287
306 308 305 306 305 302 303 302 301 300 299 299 297 296 297 294 294 294 295 294 293 292 292 291 291 290 290 289 289 287 285 286 287 287 287 293 294 295
Wind_Speed
4 4 3 1 3 3 2 3 4 1 3 3 3 4 5 4 6 2 5 11 12 12 14 14 12 11 13 11 12 10 10 10 10 10 10 10 11 13
3 5 3 2 3 3 3 3 2 3 2 2 3 3 6 5 7 6 6 9 13 13 12 13 12 9 12 12 12 11 11 11 12 12 10 9 10 10
4 5 4 4 3 3 3 3 3 2 1 4 2 2 3 5 6 5 6 5 5 13 13 14 12 8 12 13 13 13 14 15 14 13 12 10 8 10
6 6 5 4 4 3 3 3 3 1 2 2 3 3 2 2 4 4 4 5 5 10 14 11 10 11 10 12 13 12 14 15 14 15 13 12 8 7
7 7 6 6 4 2 2 3 2 2 1 2 3 2 3 2 4 4 4 6 5 11 10 11 12 9 8 13 13 10 8 11 15 12 13 8 7 8
7 7 7 6 6 5 3 2 1 1 1 1 2 3 2 3 1 1 6 3 6 5 8 10 10 10 11 11 10 9 9 10 11 13 11 8 7 7
6 6 7 7 10 8 4 3 2 0 1 2 2 2 3 3 2 2 2 4 6 2 3 5 4 4 5 8 8 11 11 12 12 13 10 9 6 6
7 6 7 9 9 9 8 6 6 3 3 2 2 3 5 4 2 1 1 2 4 2 2 5 2 4 5 5 8 11 11 12 12 12 11 7 4 5
7 6 5 4 7 5 4 2 5 5 6 5 4 5 4 4 2 3 5 3 4 6 2 5 2 4 5 6 7 9 12 12 10 8 9 7 6 7
7 7 7 6 7 6 4 1 2 4 4 2 6 7 7 8 6 5 3 4 5 6 5 4 2 4 4 6 9 8 8 3 4 8 11 10 10 8
7 8 9 8 10 9 4 2 3 5 4 6 8 12 14 14 10 2 3 1 4 4 1 2 4 4 3 4 5 6 6 7 10 11 8 10 11 9
5 6 12 10 14 12 6 5 2 4 4 7 6 6 6 7 4 5 2 3 2 4 3 1 3 1 5 3 4 5 4 9 9 11 10 8 9 4
6 3 3 11 13 12 9 6 7 3 4 4 5 5 4 4 3 2 4 5 2 4 5 1 2 3 2 5 4 4 2 3 3 5 6 10 11 8
8 6 7 14 13 12 9 9 7 3 2 4 3 4 3 4 4 5 6 3 6 7 5 1 2 2 2 3 4 4 3 2 2 1 3 5 9 15
5 7 12 16 13 9 10 8 5 3 1 1 3 3 3 4 6 5 6 5 4 4 4 2 1 4 2 4 5 3 4 3 1 3 4 4 5 6
7 4 5 9 9 5 3 5 4 4 4 3 3 3 3 3 3 1 2 3 3 4 6 7 6 4 4 5 2 3 3 3 4 3 4 5 4 5
9 4 3 1 4 3 4 5 4 3 4 3 2 3 2 2 3 2 1 1 2 2 4 4 6 6 6 4 7 4 4 7 6 5 3 6 5 5
5 7 5 5 6 5 5 5 3 6 5 4 3 2 2 2 3 3 1 2 1 2 2 4 3 3 3 4 7 4 6 5 7 7 5 5 6 5
8 7 8 8 7 6 6 5 5 5 5 4 3 2 2 3 3 3 1 1 2 1 3 3 3 2 3 6 4 8 6 7 9 7 6 8 7 7
8 10 7 7 5 6 5 5 4 4 3 3 2 2 2 2 3 2 0 1 1 1 3 3 3 4 3 4 4 8 9 9 8 8 7 4 6 17
8 8 10 9 6 5 5 5 5 5 4 3 2 2 2 1 2 1 2 1 1 1 3 4 5 11 4 3 6 6 6 16 15 9 9 9 8 6
8 8 8 7 5 6 6 5 5 4 4 3 3 2 1 1 1 1 2 1 1 2 3 4 5 5 3 3 6 10 8 8 13 15 15 15 6 5
7 7 6 7 6 6 6 6 6 5 5 5 4 2 2 1 0 2 3 2 0 3 3 4 4 3 3 2 9 7 10 10 9 10 8 21 16 13
Wind_Direction
112 105 99 70 51 67 89 137 145 197 286 295 329 317 328 313 317 298 323 308 327 324 318 311 288 251 242 248 257 251 253 260 258 265 284 297 308 315
130 119 108 104 66 56 74 78 88 141 237 216 291 297 341 344 8 16 332 353 341 328 327 335 331 273 248 250 246 240 237 243 251 256 260 275 294 302
144 137 124 120 77 72 65 74 71 95 169 303 271 317 358 355 348 348 344 331 322 325 337 336 340 329 281 275 263 245 230 233 228 242 251 260 272 295
159 140 146 118 91 77 76 75 75 71 141 260 278 300 290 330 296 313 323 331 321 325 329 325 336 316 303 289 276 266 238 234 217 228 231 242 248 278
165 159 164 138 132 108 93 83 43 41 110 156 281 298 295 339 327 314 312 313 322 329 330 340 329 338 1 356 343 333 258 232 227 218 224 232 241 264
161 162 161 161 153 145 135 131 123 44 3 1 297 286 276 291 264 312 336 335 325 326 340 348 346 354 348 340 326 324 294 255 238 227 222 216 227 259
164 161 169 175 162 161 152 188 143 3 345 321 299 293 290 317 326 276 271 312 303 254 334 313 329 324 319 325 322 327 314 283 243 236 216 219 219 249
179 182 183 180 167 172 178 191 177 177 249 203 234 253 259 236 250 262 269 312 317 271 333 288 216 281 282 303 299 306 322 316 273 230 202 201 230 257
183 177 188 165 169 186 191 305 298 289 250 184 230 227 270 220 217 257 241 212 227 276 56 280 249 283 284 286 291 297 298 294 285 201 169 155 193 238
181 187 179 164 173 163 175 240 318 308 284 208 232 253 237 265 206 220 247 248 269 266 175 246 256 259 283 283 289 299 325 329 127 150 159 182 213 231
183 182 164 161 181 170 162 153 317 290 288 297 285 279 280 275 253 171 290 332 291 279 304 194 287 280 274 282 290 274 304 201 173 176 182 225 232 236
185 173 174 169 171 171 162 171 217 262 319 335 342 335 336 331 6 196 178 268 275 329 285 297 298 307 316 280 274 286 263 241 218 198 205 250 272 239
167 173 210 174 175 172 167 181 204 179 309 328 310 304 310 310 327 305 222 205 233 247 251 180 274 301 234 287 286 298 309 330 335 341 313 295 289 246
182 177 192 179 181 185 178 207 218 231 332 330 317 308 318 320 305 302 285 233 211 215 297 270 273 250 271 299 282 315 320 344 81 332 290 300 305 295
159 190 166 179 187 195 207 209 187 193 224 287 280 276 253 278 291 312 326 332 313 12 25 46 33 318 295 260 268 304 324 306 18 348 325 298 292 299
169 180 173 194 171 179 232 236 214 199 192 230 243 263 286 317 309 293 302 326 7 332 356 10 5 359 295 273 307 301 293 315 307 283 278 279 272 282
108 106 113 137 199 197 234 231 228 181 202 209 227 265 287 293 291 303 313 356 68 309 318 326 322 315 306 283 329 296 296 312 293 275 282 289 263 272
141 142 165 193 206 205 205 218 195 205 197 190 215 209 241 282 295 312 29 87 62 317 322 282 297 322 314 309 315 285 304 298 313 310 288 285 303 304
172 161 176 192 211 204 201 198 183 184 170 190 194 219 253 286 319 339 316 80 355 351 277 288 304 314 305 325 283 318 322 333 322 320 327 320 289 302
193 165 182 193 212 205 187 174 176 154 166 184 179 227 256 280 322 345 206 178 307 313 298 298 298 284 264 292 313 320 340 334 334 324 330 286 293 303
197 180 176 176 189 217 166 173 160 167 171 150 170 217 286 301 301 9 170 245 38 321 304 296 264 300 284 318 332 327 332 340 346 335 338 332 322 309
180 194 182 167 178 178 168 159 159 159 154 166 200 216 247 185 256 20 139 145 326 271 267 278 312 347 348 354 325 328 341 335 339 341 349 350 330 318
170 184 199 170 168 165 168 161 164 161 169 177 178 198 105 108 77 117 143 145 287 305 285 298 334 352 312 335 344 332 341 344 339 342 348 352 353 345